PBO Station Position Time Series. Reference Frame : NAM14
Format Version,1.1.0
4-character ID,P731
Station name,LilJuniperCN2007
Begin Date, 2007-09-12
End Date, 2019-07-24
Release Date, 2019-10-03
Reference position, 41.3325149728 North Latitude, -120.4727625661 East Longitude, 1391.29261 meters elevation,
Date, North (mm), East (mm), Vertical (mm), North Std. Deviation (mm), East Std. Deviation (mm),              Vertical Std. Deviation (mm), Quality,
2007-09-12,0.00, 0.00, 0.00, 2.21, 1.69, 7.63, repro,
2007-09-13,-0.37, -1.81, -0.05, 2.24, 1.65, 7.53, repro,
2007-09-14,-1.01, -1.45, -1.45, 2.21, 1.70, 7.69, repro,
2007-09-15,-1.02, -1.62, 3.37, 2.30, 1.74, 7.84, repro,
2007-09-16,-0.50, -0.95, 1.28, 2.16, 1.64, 7.36, repro,
2007-09-17,-1.53, -1.87, 3.77, 2.25, 1.72, 7.70, repro,
2007-09-18,-1.43, -0.24, 0.70, 2.10, 1.63, 7.28, repro,
2007-09-19,-0.92, -1.90, 1.31, 2.05, 1.56, 7.06, repro,
2007-09-20,-0.66, -1.74, -1.93, 2.08, 1.57, 7.10, repro,
2007-09-21,-0.53, -0.93, 2.98, 2.19, 1.65, 7.49, repro,
2007-09-22,-0.56, -1.61, 6.73, 2.15, 1.61, 7.27, repro,
2007-09-23,-0.53, -1.21, -1.31, 2.14, 1.61, 7.23, repro,
2007-09-24,-1.94, -0.09, -0.49, 2.18, 1.61, 7.35, repro,
2007-09-25,-1.96, -0.52, -3.46, 2.14, 1.61, 7.36, repro,
2007-09-26,-0.53, -1.08, -0.67, 2.22, 1.63, 7.47, repro,
2007-09-27,-0.82, 0.16, 1.52, 2.15, 1.62, 7.41, repro,
2007-09-28,-3.50, -1.76, 1.31, 2.18, 1.73, 7.60, repro,
2007-09-29,-0.49, -1.99, -3.60, 2.19, 1.71, 7.48, repro,
2007-09-30,-1.82, -0.47, 2.31, 2.15, 1.65, 7.37, repro,
2007-10-01,0.62, -0.37, 2.84, 2.14, 1.66, 7.41, repro,
2007-10-02,-0.32, -0.30, 2.50, 2.18, 1.72, 7.65, repro,
2007-10-03,-1.57, 0.41, 4.30, 2.15, 1.65, 7.48, repro,
2007-10-04,-1.47, -0.45, 7.16, 2.12, 1.63, 7.33, repro,
2007-10-05,-2.02, -1.70, 3.94, 2.18, 1.70, 7.62, repro,
2007-10-06,-0.62, -0.67, 6.24, 2.14, 1.66, 7.40, repro,
2007-10-07,-0.99, -0.24, -2.05, 2.20, 1.68, 7.57, repro,
2007-10-08,-1.55, -0.34, -3.55, 2.41, 1.78, 8.25, repro,
2007-10-09,-2.08, -0.29, -0.77, 2.39, 1.90, 8.43, repro,
2007-10-10,0.59, -0.64, 3.31, 2.28, 1.69, 7.71, repro,
2007-10-11,-1.81, -1.40, -0.12, 2.08, 1.61, 7.23, repro,
2007-10-12,-1.17, -0.94, 3.15, 2.20, 1.71, 7.62, repro,
2007-10-13,-0.70, -0.36, 2.44, 2.07, 1.61, 7.23, repro,
2007-10-14,-0.98, -0.03, 3.89, 2.10, 1.62, 7.28, repro,
2007-10-15,-3.63, -0.56, 6.43, 2.09, 1.60, 7.21, repro,
2007-10-16,-2.31, -1.71, -0.12, 2.08, 1.60, 7.18, repro,
2007-10-17,-2.09, 0.69, 7.38, 2.09, 1.61, 7.27, repro,
2007-10-18,-1.54, 0.11, 8.33, 2.07, 1.60, 7.21, repro,
2007-10-19,-0.87, 2.47, 19.59, 2.09, 1.62, 7.30, repro,
2007-10-20,-0.63, 1.00, 10.94, 2.12, 1.64, 7.40, repro,
2007-10-21,-1.27, 0.28, 1.13, 2.09, 1.61, 7.24, repro,
2007-10-22,-2.22, 0.21, -4.69, 2.09, 1.60, 7.22, repro,
2007-10-23,-0.98, 0.69, -2.97, 2.16, 1.68, 7.52, repro,
2007-10-24,-0.94, 1.03, -4.87, 2.18, 1.70, 7.61, repro,
2007-10-25,-1.53, 0.03, -1.37, 2.09, 1.60, 7.23, repro,
2007-10-26,-1.21, 0.52, -3.75, 2.11, 1.65, 7.38, repro,
2007-10-27,-1.68, 0.16, -4.65, 2.09, 1.60, 7.17, repro,
2007-10-28,-1.38, 0.25, -4.65, 2.08, 1.61, 7.19, repro,
2007-10-29,-2.53, 0.37, -2.14, 2.09, 1.62, 7.29, repro,
2007-10-30,-0.23, -0.32, -7.06, 2.08, 1.60, 7.22, repro,
2007-10-31,-1.10, 0.16, -6.44, 2.08, 1.60, 7.19, repro,
2007-11-01,-1.03, 0.30, -6.93, 2.05, 1.57, 7.06, repro,
2007-11-02,-0.99, -0.16, -3.37, 2.06, 1.57, 7.05, repro,
2007-11-03,-0.82, 0.05, -5.97, 2.06, 1.59, 7.11, repro,
2007-11-04,-0.33, 0.02, -2.53, 2.05, 1.58, 7.12, repro,
2007-11-05,-0.57, 0.43, -6.72, 2.03, 1.56, 6.97, repro,
2007-11-06,-0.90, -0.12, -7.81, 2.10, 1.64, 7.37, repro,
2007-11-07,-0.52, 0.08, -6.30, 2.04, 1.57, 6.99, repro,
2007-11-08,-1.27, -0.03, -3.04, 2.10, 1.62, 7.23, repro,
2007-11-09,-1.00, -0.73, -3.06, 2.09, 1.62, 7.22, repro,
2007-11-10,-0.33, -1.06, -4.43, 2.04, 1.56, 6.97, repro,
2007-11-11,-2.06, -1.19, -1.61, 2.05, 1.56, 7.04, repro,
2007-11-12,-0.02, -0.24, -4.54, 2.04, 1.55, 6.95, repro,
2007-11-13,-1.97, -1.16, 0.09, 2.04, 1.56, 7.02, repro,
2007-11-14,-0.18, 0.09, -11.32, 2.08, 1.60, 7.19, repro,
2007-11-15,0.14, -0.01, -1.75, 2.07, 1.59, 7.14, repro,
2007-11-16,-0.44, -0.40, -7.13, 2.07, 1.58, 7.13, repro,
2007-11-17,-0.25, 1.90, -6.42, 2.05, 1.56, 7.02, repro,
2007-11-18,-0.34, -0.84, -0.41, 2.04, 1.56, 6.99, repro,
2007-11-19,-0.71, -0.24, -0.56, 2.05, 1.58, 7.08, repro,
2007-11-20,0.17, -0.93, -7.73, 2.07, 1.63, 7.23, repro,
2007-11-21,-0.74, -0.21, -5.50, 2.24, 1.79, 7.98, repro,
2007-11-22,0.47, -0.84, -11.57, 2.10, 1.62, 7.17, repro,
2007-11-23,0.47, -0.51, -7.49, 2.16, 1.71, 7.47, repro,
2007-11-24,0.18, -0.76, -5.61, 2.12, 1.67, 7.30, repro,
2007-11-25,-0.34, -0.67, -0.60, 2.15, 1.73, 7.48, repro,
2007-11-26,0.53, -0.99, -11.23, 2.16, 1.70, 7.48, repro,
2007-11-27,-1.08, -1.74, -6.94, 2.11, 1.67, 7.30, repro,
2007-11-28,0.43, -0.36, -12.36, 2.14, 1.66, 7.31, repro,
2007-11-29,-0.40, -0.64, -8.92, 2.14, 1.64, 7.38, repro,
2007-11-30,-0.26, -0.99, -5.43, 2.22, 1.73, 7.61, repro,
2007-12-01,-0.57, -0.89, 4.37, 2.20, 1.78, 7.77, repro,
2007-12-02,-0.49, 1.17, -2.52, 2.19, 1.75, 7.72, repro,
2007-12-03,-1.93, -1.62, -10.46, 2.25, 1.75, 7.97, repro,
2007-12-04,-0.64, -0.44, -8.17, 2.34, 1.95, 8.44, repro,
2007-12-05,0.07, 0.58, -6.58, 2.25, 1.82, 8.16, repro,
2007-12-06,1.43, -0.11, -0.38, 2.39, 1.93, 8.50, repro,
2007-12-07,-0.74, -0.69, -1.08, 2.35, 1.95, 8.40, repro,
2007-12-08,0.51, -1.28, 0.34, 2.28, 1.77, 7.80, repro,
2007-12-09,0.66, 0.49, -9.09, 2.46, 2.12, 8.95, repro,
2007-12-10,0.57, -0.92, -3.52, 2.16, 1.73, 7.50, repro,
2007-12-11,-0.66, -0.59, -4.28, 2.22, 1.78, 7.73, repro,
2007-12-12,0.94, -1.62, -8.97, 2.25, 1.73, 7.80, repro,
2007-12-13,0.42, -1.17, -11.31, 2.18, 1.68, 7.39, repro,
2007-12-14,-0.10, -0.14, -7.14, 2.10, 1.60, 7.22, repro,
2007-12-15,-1.14, 0.22, -2.48, 2.12, 1.59, 7.23, repro,
2007-12-16,0.53, -0.51, 1.61, 2.11, 1.59, 7.22, repro,
2007-12-17,1.53, 1.36, 3.48, 2.16, 1.65, 7.42, repro,
2007-12-18,1.81, -1.12, 5.35, 2.10, 1.60, 7.26, repro,
2007-12-19,0.35, -1.00, -0.73, 2.18, 1.66, 7.48, repro,
2007-12-20,0.71, 0.27, -0.13, 2.10, 1.59, 7.16, repro,
2007-12-21,-0.22, 1.65, -1.60, 2.37, 1.91, 8.40, repro,
2007-12-22,-0.18, -0.89, -4.13, 2.21, 1.71, 7.75, repro,
2007-12-23,-0.50, 0.34, -8.84, 2.16, 1.69, 7.53, repro,
2007-12-24,-2.33, -0.50, -4.31, 2.11, 1.62, 7.31, repro,
2007-12-25,-2.62, -1.97, -3.08, 2.16, 1.67, 7.35, repro,
2007-12-26,-1.20, -0.84, -1.01, 2.13, 1.61, 7.23, repro,
2007-12-27,0.36, -0.09, 2.41, 2.22, 1.70, 7.58, repro,
2007-12-28,-0.65, 0.33, 2.59, 2.16, 1.66, 7.52, repro,
2007-12-29,0.45, 0.07, -2.19, 2.18, 1.66, 7.55, repro,
2007-12-30,-0.66, 0.59, -6.43, 2.15, 1.65, 7.41, repro,
2007-12-31,-0.31, 0.97, -8.11, 2.10, 1.57, 7.12, repro,
2008-01-01,0.38, 0.79, -12.05, 2.12, 1.57, 7.16, repro,
2008-01-02,0.89, 0.50, -4.67, 2.10, 1.56, 7.17, repro,
2008-01-03,1.37, 0.87, 3.58, 2.13, 1.59, 7.34, repro,
2008-01-04,3.25, 3.88, 7.76, 2.06, 1.54, 7.02, repro,
2008-01-05,-0.46, 1.25, 13.24, 2.11, 1.58, 7.20, repro,
2008-01-06,-0.83, -0.25, 4.02, 2.08, 1.54, 7.05, repro,
2008-01-07,-0.00, 0.38, 3.89, 2.08, 1.55, 7.11, repro,
2008-01-08,-0.32, 0.40, -4.06, 2.18, 1.59, 7.38, repro,
2008-01-09,-1.20, -0.35, -5.18, 2.12, 1.57, 7.20, repro,
2008-01-10,-1.30, 0.01, 0.75, 2.05, 1.55, 7.03, repro,
2008-01-11,-0.45, 1.52, -2.91, 2.07, 1.55, 7.07, repro,
2008-01-12,-1.54, 0.11, -3.24, 2.09, 1.56, 7.11, repro,
2008-01-13,-1.09, 0.31, -9.27, 2.08, 1.57, 7.12, repro,
2008-01-14,-0.85, 0.41, -8.73, 2.07, 1.56, 7.07, repro,
2008-01-15,-0.31, 0.58, -7.74, 2.05, 1.56, 7.03, repro,
2008-01-16,-0.72, 0.03, -10.29, 2.09, 1.58, 7.16, repro,
2008-01-17,-0.40, 0.42, -4.92, 2.11, 1.57, 7.17, repro,
2008-01-18,-0.67, 0.57, -5.92, 2.07, 1.60, 7.19, repro,
2008-01-19,-0.42, 0.18, -9.71, 2.05, 1.57, 7.07, repro,
2008-01-20,-1.40, 0.21, -4.13, 2.05, 1.56, 7.05, repro,
2008-01-21,-1.11, 0.60, -4.05, 2.03, 1.55, 6.98, repro,
2008-01-22,-1.23, 0.98, -7.07, 2.07, 1.56, 7.05, repro,
2008-01-23,-0.67, 0.50, -7.27, 2.09, 1.56, 7.11, repro,
2008-01-24,-1.22, 0.68, 1.12, 2.05, 1.55, 7.00, repro,
2008-01-25,-0.15, 0.48, -1.79, 2.06, 1.57, 7.08, repro,
2008-01-26,-2.86, 0.65, -6.45, 2.05, 1.56, 7.03, repro,
2008-01-27,-0.37, 1.07, 6.27, 2.04, 1.56, 7.02, repro,
2008-01-28,0.11, 0.80, 5.33, 2.07, 1.56, 7.07, repro,
2008-01-29,-1.08, 0.42, 4.91, 2.17, 1.66, 7.39, repro,
2008-01-30,-1.63, -0.05, 1.70, 2.17, 1.64, 7.42, repro,
2008-01-31,0.42, 1.48, -5.58, 2.05, 1.57, 7.09, repro,
2008-02-01,-1.69, 3.26, -3.69, 2.03, 1.55, 6.98, repro,
2008-02-02,-1.96, 0.31, -7.97, 2.04, 1.54, 6.95, repro,
2008-02-03,-0.63, 0.92, -0.74, 2.06, 1.55, 7.05, repro,
2008-02-04,0.13, 0.74, -7.81, 2.07, 1.56, 7.10, repro,
2008-02-05,-1.15, 0.86, -6.71, 2.09, 1.63, 7.26, repro,
2008-02-06,-1.36, -0.72, -5.21, 2.08, 1.63, 7.25, repro,
2008-02-07,-1.36, 0.53, -3.94, 2.06, 1.58, 7.11, repro,
2008-02-08,-2.12, 0.59, -6.34, 2.06, 1.55, 7.06, repro,
2008-02-09,-0.92, 1.13, -9.35, 2.07, 1.56, 7.07, repro,
2008-02-10,-0.57, 0.59, -8.50, 2.06, 1.56, 7.05, repro,
2008-02-11,-1.64, 1.00, -7.80, 2.05, 1.57, 7.07, repro,
2008-02-12,-1.40, 1.16, -7.65, 2.04, 1.57, 7.06, repro,
2008-02-13,-1.09, 0.65, -2.48, 2.05, 1.54, 6.98, repro,
2008-02-14,-0.51, 0.98, -5.81, 2.06, 1.55, 7.02, repro,
2008-02-15,-0.55, 1.03, -7.49, 2.12, 1.61, 7.26, repro,
2008-02-16,-1.58, 0.95, -4.40, 2.05, 1.56, 7.04, repro,
2008-02-17,-1.09, 1.13, -5.53, 2.04, 1.57, 7.06, repro,
2008-02-18,-1.86, 0.46, -4.76, 2.04, 1.57, 7.03, repro,
2008-02-19,-1.93, 0.10, -4.16, 2.06, 1.55, 7.03, repro,
2008-02-20,-0.98, 0.71, -4.73, 2.06, 1.56, 7.03, repro,
2008-02-21,-0.93, 0.45, -0.18, 2.08, 1.58, 7.15, repro,
2008-02-22,-1.65, 0.77, -1.58, 2.05, 1.57, 7.06, repro,
2008-02-23,-2.16, 0.39, -5.00, 2.07, 1.60, 7.15, repro,
2008-02-24,-2.47, 1.04, 1.41, 2.04, 1.55, 7.00, repro,
2008-02-25,-1.28, 0.76, -7.82, 2.06, 1.56, 7.06, repro,
2008-02-26,-1.29, 0.28, -12.15, 2.08, 1.56, 7.10, repro,
2008-02-27,-1.41, 0.10, -11.63, 2.11, 1.62, 7.30, repro,
2008-02-28,-0.82, 0.02, -11.26, 2.13, 1.65, 7.46, repro,
2008-02-29,-2.24, 0.14, -5.97, 2.04, 1.56, 7.01, repro,
2008-03-01,-1.25, 1.03, -3.96, 2.08, 1.60, 7.22, repro,
2008-03-02,-1.66, -0.37, -9.28, 2.12, 1.61, 7.29, repro,
2008-03-03,-1.43, -0.59, -11.28, 2.08, 1.57, 7.15, repro,
2008-03-04,-1.67, -0.04, -8.16, 2.05, 1.56, 7.05, repro,
2008-03-05,-0.77, 0.19, -9.00, 2.14, 1.68, 7.53, repro,
2008-03-06,-1.17, -0.38, -8.79, 2.05, 1.56, 7.03, repro,
2008-03-07,-1.98, -0.03, -9.56, 2.06, 1.56, 7.07, repro,
2008-03-08,-1.62, 0.76, -6.20, 2.11, 1.60, 7.32, repro,
2008-03-09,-1.67, -0.31, -7.44, 2.10, 1.61, 7.37, repro,
2008-03-10,-1.21, 0.24, -9.32, 2.04, 1.56, 7.01, repro,
2008-03-11,-1.12, -0.11, -10.55, 2.05, 1.56, 7.02, repro,
2008-03-12,-0.95, -0.40, -8.08, 2.08, 1.59, 7.20, repro,
2008-03-13,-1.70, -0.93, 0.47, 2.09, 1.60, 7.25, repro,
2008-03-14,-0.72, -0.67, -6.30, 2.09, 1.60, 7.31, repro,
2008-03-15,-0.32, -1.01, -10.45, 2.09, 1.61, 7.34, repro,
2008-03-16,-0.86, -0.90, -6.10, 2.10, 1.60, 7.22, repro,
2008-03-17,-0.23, 0.12, -8.65, 2.18, 1.72, 7.75, repro,
2008-03-18,-2.50, -0.90, -8.93, 2.10, 1.62, 7.29, repro,
2008-03-19,0.95, 0.28, -6.51, 2.10, 1.59, 7.22, repro,
2008-03-20,-0.98, 0.17, -9.02, 2.09, 1.60, 7.23, repro,
2008-03-21,-1.83, -0.40, -12.35, 2.10, 1.60, 7.26, repro,
2008-03-22,0.04, -0.45, -12.33, 2.10, 1.60, 7.21, repro,
2008-03-23,-1.94, -0.54, -8.36, 2.09, 1.58, 7.19, repro,
2008-03-24,-1.28, -1.62, -4.36, 2.09, 1.59, 7.18, repro,
2008-03-25,-0.09, -1.78, -9.74, 2.12, 1.62, 7.29, repro,
2008-03-26,2.26, 3.84, -10.32, 2.11, 1.63, 7.33, repro,
2008-03-27,0.37, 0.88, -9.78, 2.14, 1.64, 7.36, repro,
2008-03-28,-0.39, -0.08, -7.42, 2.11, 1.59, 7.20, repro,
2008-03-29,0.73, 0.06, -0.81, 2.09, 1.56, 7.18, repro,
2008-03-30,-0.37, -0.23, -5.09, 2.08, 1.56, 7.09, repro,
2008-03-31,-0.14, 0.28, -7.90, 2.07, 1.56, 7.06, repro,
2008-04-01,-0.74, -0.17, -6.35, 2.08, 1.56, 7.13, repro,
2008-04-02,-1.06, -0.94, -3.14, 2.14, 1.57, 7.26, repro,
2008-04-03,-0.27, -0.59, -7.11, 2.10, 1.56, 7.17, repro,
2008-04-04,-0.67, -0.66, -6.31, 2.08, 1.56, 7.16, repro,
2008-04-05,-0.75, -0.16, -0.33, 2.07, 1.56, 7.11, repro,
2008-04-06,-2.10, 0.01, -6.28, 2.08, 1.57, 7.14, repro,
2008-04-07,-3.19, -0.38, -1.90, 2.08, 1.56, 7.13, repro,
2008-04-08,-0.76, -1.33, -7.50, 2.08, 1.57, 7.18, repro,
2008-04-09,-0.52, -0.38, -2.74, 2.08, 1.55, 7.13, repro,
2008-04-10,0.58, -0.24, -7.39, 2.08, 1.56, 7.16, repro,
2008-04-11,-1.40, -0.36, -10.25, 2.09, 1.56, 7.14, repro,
2008-04-12,-1.71, -0.56, -9.56, 2.08, 1.56, 7.14, repro,
2008-04-13,-0.98, -0.94, -10.00, 2.08, 1.56, 7.15, repro,
2008-04-14,-0.41, -0.58, -1.30, 2.16, 1.60, 7.37, repro,
2008-04-15,-2.52, -1.46, -0.49, 2.11, 1.61, 7.25, repro,
2008-04-16,-1.12, -0.91, -2.88, 2.12, 1.61, 7.31, repro,
2008-04-17,-1.45, -1.00, -5.14, 2.09, 1.57, 7.22, repro,
2008-04-18,-1.18, -1.32, -8.94, 2.09, 1.56, 7.15, repro,
2008-04-19,-0.33, -0.11, -5.59, 2.08, 1.56, 7.13, repro,
2008-04-20,-1.67, -0.43, -2.51, 2.09, 1.55, 7.19, repro,
2008-04-21,-0.88, 0.51, -6.43, 2.08, 1.55, 7.17, repro,
2008-04-22,-1.73, 0.46, -4.47, 2.12, 1.57, 7.30, repro,
2008-04-23,0.15, 1.19, -6.93, 2.16, 1.63, 7.43, repro,
2008-04-24,-1.24, -0.41, -7.35, 2.10, 1.58, 7.23, repro,
2008-04-25,-1.84, -1.01, -9.37, 2.10, 1.55, 7.19, repro,
2008-04-26,-1.62, -0.52, -10.85, 2.19, 1.63, 7.47, repro,
2008-04-27,-1.37, -0.02, -9.57, 2.20, 1.59, 7.42, repro,
2008-04-28,-0.26, -0.74, -4.98, 2.21, 1.61, 7.49, repro,
2008-04-29,1.19, 0.27, 2.04, 2.24, 1.60, 7.46, repro,
2008-04-30,-3.63, -1.97, -4.71, 2.14, 1.59, 7.26, repro,
2008-05-01,-0.58, 0.08, -6.75, 2.16, 1.61, 7.40, repro,
2008-05-02,-1.61, 0.24, -5.43, 2.18, 1.61, 7.43, repro,
2008-05-03,-1.34, -1.75, -2.40, 2.14, 1.62, 7.43, repro,
2008-05-04,-1.56, 0.43, -9.22, 2.19, 1.59, 7.49, repro,
2008-05-05,-1.12, -0.53, -7.43, 2.15, 1.60, 7.31, repro,
2008-05-06,0.20, -0.92, -5.86, 2.15, 1.64, 7.41, repro,
2008-05-07,-0.48, 0.12, -0.22, 2.12, 1.57, 7.26, repro,
2008-05-08,-0.55, -0.91, -2.89, 2.31, 1.68, 7.87, repro,
2008-05-09,-0.33, -0.65, -6.66, 2.20, 1.66, 7.59, repro,
2008-05-10,-0.97, 0.21, -3.28, 2.11, 1.56, 7.21, repro,
2008-05-11,-2.40, -0.30, 12.49, 2.12, 1.58, 7.23, repro,
2008-05-12,-2.29, -0.80, 2.71, 2.13, 1.57, 7.22, repro,
2008-05-13,-1.25, -0.60, -1.91, 2.15, 1.57, 7.29, repro,
2008-05-14,0.42, -1.35, -3.29, 2.12, 1.54, 7.16, repro,
2008-05-15,-0.18, 0.00, -15.75, 2.12, 1.55, 7.17, repro,
2008-05-16,-0.93, -0.02, -8.84, 2.09, 1.53, 7.03, repro,
2008-05-17,-1.83, 0.73, -5.72, 2.13, 1.56, 7.22, repro,
2008-05-18,-1.95, 0.01, -5.19, 2.15, 1.58, 7.29, repro,
2008-05-19,-1.78, 0.20, -2.79, 2.09, 1.54, 7.12, repro,
2008-05-20,-2.80, -1.04, 2.58, 2.11, 1.56, 7.26, repro,
2008-05-21,1.04, 0.02, -6.38, 2.10, 1.55, 7.19, repro,
2008-05-22,0.14, 0.01, 0.68, 2.12, 1.60, 7.33, repro,
2008-05-23,-2.35, -0.56, -0.17, 2.12, 1.59, 7.34, repro,
2008-05-24,-0.83, -0.69, -3.94, 2.11, 1.55, 7.22, repro,
2008-05-25,-2.01, -1.09, -4.98, 2.10, 1.55, 7.20, repro,
2008-05-26,-2.48, 0.06, -1.49, 2.11, 1.58, 7.27, repro,
2008-05-27,-0.84, 0.35, -4.90, 2.09, 1.55, 7.15, repro,
2008-05-28,-0.82, 0.09, -5.87, 2.09, 1.55, 7.15, repro,
2008-05-29,-0.74, -0.64, -5.15, 2.15, 1.59, 7.32, repro,
2008-05-30,-0.62, 0.42, -0.78, 2.09, 1.54, 7.16, repro,
2008-05-31,-1.31, 0.35, -3.06, 2.10, 1.56, 7.23, repro,
2008-06-01,-0.70, -0.10, -7.79, 2.09, 1.54, 7.14, repro,
2008-06-02,-0.79, 0.86, -6.25, 2.10, 1.55, 7.17, repro,
2008-06-03,-1.51, 2.18, -3.06, 2.20, 1.70, 7.69, repro,
2008-06-04,-1.59, 0.83, -0.74, 2.10, 1.55, 7.21, repro,
2008-06-05,-1.11, -0.36, -7.18, 2.10, 1.56, 7.20, repro,
2008-06-06,-0.40, -0.66, -4.80, 2.12, 1.57, 7.25, repro,
2008-06-07,-0.04, -0.40, -1.82, 2.15, 1.62, 7.42, repro,
2008-06-08,-0.52, 1.17, -6.90, 2.15, 1.60, 7.36, repro,
2008-06-09,-1.04, 1.03, -7.89, 2.14, 1.59, 7.35, repro,
2008-06-10,0.46, 0.30, -7.08, 2.09, 1.55, 7.21, repro,
2008-06-11,0.62, 1.04, -6.27, 2.11, 1.55, 7.23, repro,
2008-06-12,-0.47, 0.94, -4.29, 2.10, 1.58, 7.27, repro,
2008-06-13,0.25, 1.21, -8.39, 2.09, 1.55, 7.19, repro,
2008-06-14,0.53, 0.10, -6.13, 2.16, 1.59, 7.36, repro,
2008-06-15,0.56, -0.32, -7.41, 2.16, 1.59, 7.39, repro,
2008-06-16,-0.63, 0.85, -7.62, 2.11, 1.55, 7.22, repro,
2008-06-17,-0.71, -0.10, -6.60, 2.10, 1.55, 7.20, repro,
2008-06-18,-0.75, 1.59, -10.55, 2.08, 1.54, 7.13, repro,
2008-06-19,0.27, 0.04, -7.84, 2.11, 1.60, 7.34, repro,
2008-06-20,-1.18, 1.50, -6.04, 2.10, 1.55, 7.18, repro,
2008-06-21,0.82, 1.18, -6.20, 2.29, 1.77, 7.99, repro,
2008-06-22,0.24, 1.66, -15.41, 2.10, 1.55, 7.20, repro,
2008-06-23,-0.58, 1.73, -2.15, 2.09, 1.54, 7.12, repro,
2008-06-24,-0.71, 1.00, -2.05, 2.08, 1.54, 7.12, repro,
2008-06-25,0.09, 0.72, -1.31, 2.10, 1.55, 7.17, repro,
2008-06-26,0.05, 1.06, -0.53, 2.12, 1.60, 7.33, repro,
2008-06-27,-0.78, 1.52, -3.34, 2.10, 1.54, 7.15, repro,
2008-06-28,-0.86, 0.18, -0.32, 2.16, 1.66, 7.50, repro,
2008-06-29,1.03, 1.00, -8.80, 2.12, 1.60, 7.30, repro,
2008-06-30,1.06, 0.88, -5.70, 2.10, 1.56, 7.22, repro,
2008-07-01,0.16, 1.13, -4.14, 2.15, 1.59, 7.31, repro,
2008-07-02,0.75, -0.01, -2.17, 2.10, 1.54, 7.14, repro,
2008-07-03,1.88, -0.47, -1.33, 2.13, 1.58, 7.30, repro,
2008-07-04,0.43, 1.69, 2.43, 2.09, 1.56, 7.19, repro,
2008-07-05,-0.01, 0.33, -4.81, 2.08, 1.55, 7.16, repro,
2008-07-06,0.24, 2.00, 10.43, 2.10, 1.55, 7.21, repro,
2008-07-07,0.90, 0.82, 3.58, 2.13, 1.60, 7.33, repro,
2008-07-08,0.91, 1.10, -2.44, 2.10, 1.55, 7.18, repro,
2008-07-09,-0.26, 1.28, 0.53, 2.10, 1.54, 7.16, repro,
2008-07-10,0.08, 0.88, -4.98, 2.18, 1.63, 7.41, repro,
2008-07-11,0.31, 0.92, -4.28, 2.16, 1.59, 7.34, repro,
2008-07-12,0.48, 0.87, -0.91, 2.10, 1.55, 7.18, repro,
2008-07-13,0.91, 0.66, 2.88, 2.12, 1.61, 7.35, repro,
2008-07-14,0.72, 0.80, 1.72, 2.12, 1.56, 7.27, repro,
2008-07-15,1.93, 2.46, -9.03, 2.12, 1.57, 7.30, repro,
2008-07-16,-0.52, 2.75, -5.15, 2.10, 1.56, 7.24, repro,
2008-07-17,-0.90, 0.65, -3.30, 2.09, 1.55, 7.15, repro,
2008-07-18,-0.59, 0.79, 4.77, 2.22, 1.60, 7.50, repro,
2008-07-19,0.00, -0.16, 1.76, 2.16, 1.56, 7.35, repro,
2008-07-20,0.43, 0.61, -0.67, 2.09, 1.55, 7.15, repro,
2008-07-21,-1.74, 0.12, 3.49, 2.12, 1.57, 7.27, repro,
2008-07-22,-0.83, 0.50, -0.26, 2.10, 1.55, 7.22, repro,
2008-07-23,-0.43, 1.42, 5.20, 2.18, 1.62, 7.44, repro,
2008-07-24,0.20, 1.14, 1.08, 2.09, 1.54, 7.14, repro,
2008-07-25,0.25, 0.65, 0.32, 2.08, 1.54, 7.14, repro,
2008-07-26,0.25, 0.58, 2.86, 2.09, 1.55, 7.19, repro,
2008-07-27,-0.42, 0.67, 6.48, 2.09, 1.54, 7.17, repro,
2008-07-28,-2.23, 1.71, 5.95, 2.17, 1.57, 7.28, repro,
2008-07-29,-0.35, 0.32, 10.51, 2.15, 1.56, 7.36, repro,
2008-07-30,-0.11, 1.45, 8.81, 2.14, 1.55, 7.36, repro,
2008-07-31,-0.25, 1.50, 8.72, 2.07, 1.54, 7.09, repro,
2008-08-01,-0.87, 1.04, 8.66, 2.09, 1.54, 7.14, repro,
2008-08-02,-1.74, 0.92, 7.72, 2.10, 1.54, 7.13, repro,
2008-08-03,0.14, 0.80, 4.14, 2.13, 1.58, 7.29, repro,
2008-08-04,-0.14, 1.15, 0.57, 2.08, 1.54, 7.15, repro,
2008-08-05,-1.03, 1.25, 3.59, 2.08, 1.53, 7.08, repro,
2008-08-06,-0.74, 1.38, 0.79, 2.14, 1.57, 7.30, repro,
2008-08-07,-1.68, 1.26, -4.43, 2.20, 1.62, 7.48, repro,
2008-08-08,-2.38, -1.61, 11.94, 2.19, 1.61, 7.41, repro,
2008-08-09,1.15, 1.07, 2.83, 2.19, 1.61, 7.44, repro,
2008-08-10,-0.93, 0.47, 3.17, 2.13, 1.55, 7.19, repro,
2008-08-11,0.60, 0.48, -0.43, 2.13, 1.56, 7.23, repro,
2008-08-12,-0.33, 1.51, 8.06, 2.14, 1.56, 7.30, repro,
2008-08-13,-1.69, 0.75, 3.54, 2.15, 1.56, 7.31, repro,
2008-08-14,-1.14, 0.74, 7.01, 2.14, 1.56, 7.26, repro,
2008-08-15,-1.52, 1.36, 4.12, 2.13, 1.55, 7.27, repro,
2008-08-16,0.00, 0.32, 3.43, 2.13, 1.55, 7.24, repro,
2008-08-17,-0.08, 0.07, 2.76, 2.17, 1.58, 7.43, repro,
2008-08-18,1.67, 0.31, 0.02, 2.18, 1.58, 7.40, repro,
2008-08-19,-1.13, 0.22, 7.12, 2.15, 1.56, 7.29, repro,
2008-08-20,0.31, 1.10, 8.43, 2.20, 1.57, 7.34, repro,
2008-08-21,-0.37, 0.33, 2.83, 2.12, 1.55, 7.22, repro,
2008-08-22,0.45, 0.59, 6.54, 2.14, 1.55, 7.24, repro,
2008-08-23,-0.13, 0.12, 4.74, 2.16, 1.57, 7.32, repro,
2008-08-24,-0.52, 0.91, 2.95, 2.17, 1.59, 7.43, repro,
2008-08-25,-0.61, 0.22, 2.94, 2.14, 1.56, 7.27, repro,
2008-08-26,-1.86, 0.24, 8.95, 2.13, 1.56, 7.23, repro,
2008-08-27,0.20, 0.05, 7.80, 2.15, 1.57, 7.31, repro,
2008-08-28,0.60, -0.18, 5.48, 2.31, 1.67, 7.73, repro,
2008-08-29,-0.54, 0.25, 3.00, 2.19, 1.60, 7.46, repro,
2008-08-30,0.20, 0.45, 10.15, 2.16, 1.58, 7.36, repro,
2008-08-31,-0.24, -0.04, 5.33, 2.16, 1.58, 7.32, repro,
2008-09-01,-0.54, 0.05, 2.75, 2.17, 1.58, 7.38, repro,
2008-09-02,-0.46, 0.83, -0.60, 2.16, 1.59, 7.37, repro,
2008-09-03,-0.34, 0.38, 0.30, 2.18, 1.58, 7.38, repro,
2008-09-04,-0.14, 0.50, 2.24, 2.28, 1.69, 7.83, repro,
2008-09-05,-0.39, 0.63, -1.04, 2.24, 1.62, 7.49, repro,
2008-09-06,-1.01, 0.96, 0.70, 2.15, 1.58, 7.32, repro,
2008-09-07,-0.64, 1.53, 2.56, 2.15, 1.57, 7.38, repro,
2008-09-08,-0.29, -0.18, 1.88, 2.20, 1.62, 7.47, repro,
2008-09-09,-0.85, 0.78, 3.37, 2.21, 1.57, 7.35, repro,
2008-09-10,0.01, 0.56, 4.40, 2.24, 1.66, 7.66, repro,
2008-09-11,-1.05, 0.29, 4.29, 2.24, 1.67, 7.69, repro,
2008-09-12,0.80, 0.56, 8.66, 2.28, 1.74, 7.90, repro,
2008-09-13,0.56, 0.55, 5.59, 2.25, 1.66, 7.70, repro,
2008-09-14,0.16, 0.84, -0.95, 2.24, 1.66, 7.67, repro,
2008-09-15,-1.13, 1.13, 2.37, 2.14, 1.57, 7.25, repro,
2008-09-16,-0.95, 0.64, 1.25, 2.15, 1.59, 7.33, repro,
2008-09-17,-0.23, 1.80, -2.07, 2.24, 1.62, 7.54, repro,
2008-09-18,-0.33, 0.96, 0.19, 2.15, 1.56, 7.31, repro,
2008-09-19,-0.49, 1.00, 2.11, 2.15, 1.56, 7.32, repro,
2008-09-20,-1.45, 1.03, 3.34, 2.12, 1.55, 7.18, repro,
2008-09-21,-1.24, 0.64, 3.83, 2.13, 1.54, 7.15, repro,
2008-09-22,-0.51, 0.50, 0.01, 2.17, 1.59, 7.47, repro,
2008-09-23,-0.75, 1.25, 3.94, 2.15, 1.55, 7.25, repro,
2008-09-24,-1.39, 1.16, 5.80, 2.26, 1.66, 7.68, repro,
2008-09-25,-1.01, 1.77, 7.33, 2.18, 1.59, 7.39, repro,
2008-09-26,0.56, 1.23, 2.20, 2.13, 1.55, 7.20, repro,
2008-09-27,-1.03, 0.61, -1.81, 2.23, 1.65, 7.61, repro,
2008-09-28,-1.02, 1.12, -1.04, 2.15, 1.55, 7.23, repro,
2008-09-29,-0.49, 0.41, 0.15, 2.20, 1.59, 7.37, repro,
2008-09-30,0.11, 0.20, -2.09, 2.14, 1.55, 7.23, repro,
2008-10-01,-0.97, 0.88, -3.99, 2.13, 1.56, 7.22, repro,
2008-10-02,0.03, 1.72, 3.58, 2.17, 1.58, 7.33, repro,
2008-10-03,0.06, 0.25, 5.38, 2.19, 1.59, 7.35, repro,
2008-10-04,-1.87, 1.25, 11.00, 2.14, 1.55, 7.19, repro,
2008-10-05,-1.36, 0.84, 5.40, 2.15, 1.55, 7.25, repro,
2008-10-06,-0.55, 0.65, 1.35, 2.15, 1.55, 7.24, repro,
2008-10-07,-1.44, 1.81, 2.11, 2.16, 1.56, 7.27, repro,
2008-10-08,-0.43, 1.34, -3.26, 2.16, 1.58, 7.31, repro,
2008-10-09,-0.25, 0.99, -0.47, 2.10, 1.53, 7.10, repro,
2008-10-10,-1.44, -0.47, -1.87, 2.11, 1.54, 7.14, repro,
2008-10-11,-1.14, 0.95, -1.83, 2.09, 1.54, 7.12, repro,
2008-10-12,-0.89, 0.82, -3.93, 2.09, 1.54, 7.14, repro,
2008-10-13,-1.15, 1.29, -2.26, 2.09, 1.53, 7.13, repro,
2008-10-14,0.48, 1.63, -4.82, 2.09, 1.54, 7.13, repro,
2008-10-15,-0.71, 1.25, 0.61, 2.17, 1.56, 7.32, repro,
2008-10-16,-0.35, 1.11, 1.10, 2.16, 1.57, 7.34, repro,
2008-10-17,-0.28, 1.05, -6.15, 2.09, 1.54, 7.15, repro,
2008-10-18,-0.68, 1.17, -1.05, 2.09, 1.54, 7.16, repro,
2008-10-19,-0.11, 0.89, -0.88, 2.09, 1.53, 7.08, repro,
2008-10-20,-0.88, 1.54, 2.93, 2.09, 1.54, 7.13, repro,
2008-10-21,-1.87, 2.13, -2.44, 2.08, 1.53, 7.07, repro,
2008-10-22,-0.92, 1.47, -4.76, 2.09, 1.53, 7.09, repro,
2008-10-23,-0.54, 1.54, -0.14, 2.09, 1.54, 7.11, repro,
2008-10-24,-0.19, 1.31, -0.80, 2.10, 1.54, 7.13, repro,
2008-10-25,-0.49, 1.19, 1.22, 2.10, 1.54, 7.11, repro,
2008-10-26,-0.31, 1.00, -6.72, 2.08, 1.53, 7.09, repro,
2008-10-27,-1.01, 2.39, -7.53, 2.08, 1.53, 7.08, repro,
2008-10-28,-1.30, 2.35, -4.56, 2.17, 1.55, 7.21, repro,
2008-10-29,-0.67, 0.33, -4.77, 2.19, 1.56, 7.23, repro,
2008-10-30,-0.09, 1.47, 2.25, 2.10, 1.53, 7.12, repro,
2008-10-31,3.30, 3.09, 2.75, 2.18, 1.58, 7.32, repro,
2008-11-01,0.16, 2.23, 4.68, 2.13, 1.57, 7.26, repro,
2008-11-02,-0.69, 1.35, 6.72, 2.12, 1.59, 7.34, repro,
2008-11-03,-1.79, 0.95, 1.86, 2.13, 1.56, 7.23, repro,
2008-11-04,-0.47, 1.97, 6.56, 2.12, 1.57, 7.22, repro,
2008-11-05,-0.18, 0.41, 2.08, 2.11, 1.57, 7.23, repro,